Presque Isle, ME

8:12 AM EST on February 14, 2016 (GMT -0500)
Northern Maine Regional At Presque Isle

Weather History for KPQI - March, 2014

Change the Weather History Date:

Saturday, March 15, 2014

  Actual Average Record
Temperature  
Mean Temperature 30 °F -  
Max Temperature 37 °F 33 °F 53 °F (1945)
Min Temperature 24 °F 15 °F -25 °F (1926)
Degree Days  
Heating Degree Days 34    
Moisture  
Dew Point 26 °F    
Average Humidity 79    
Maximum Humidity 93    
Minimum Humidity 60    
Precipitation  
Precipitation 0.04 in - - ()
Sea Level Pressure  
Sea Level Pressure 29.62 in    
Wind  
Wind Speed 10 mph (South)    
Max Wind Speed 16 mph    
Max Gust Speed 20 mph    
Visibility 9 miles    
Events      
Averages and records for this station are not official NWS values.
T = Trace of Precipitation, MM = Missing Value Source: NWS Daily Summary

Daily Weather History Graph

Daily Weather History Graph

Search for Another Location

Airport or City:

Trip Planner

Search our weather history database for the weather conditions in past years. The results will help you decide how hot, cold, wet, or windy it might be!

Date:

Astronomy

Mar. 15, 2014 Rise Set
Actual Time 6:45 AM EDT 6:37 PM EDT
Civil Twilight 6:14 AM EDT 7:08 PM EDT
Nautical Twilight 5:39 AM EDT 7:43 PM EDT
Astronomical Twilight 5:03 AM EDT 8:19 PM EDT
Moon 5:52 PM EDT (3/15) 5:57 AM EDT (3/15)
Length of Visible Light 12h 53m
Length of Day
11h 52m
Waxing Gibbous, 99% of the Moon is Illuminated
Mar 15
Waxing Gibbous
Mar 16
Full
Mar 23
Last Quarter
Mar 30
New
Apr 7
First Quarter

Hourly Weather History & Observations

Time (EDT) Temp. Windchill Dew Point Humidity Pressure Visibility Wind Dir Wind Speed Gust Speed Precip Events Conditions
12:15 AM 24.8 °F 14.0 °F 17.6 °F 74% 29.77 in 5.0 mi South 11.5 mph - N/A   Overcast
12:35 AM 24.8 °F 16.1 °F 19.4 °F 80% 29.76 in 5.0 mi SE 8.1 mph - N/A   Overcast
12:55 AM 24.8 °F 16.1 °F 17.6 °F 74% 29.75 in 10.0 mi SSE 8.1 mph - N/A   Overcast
1:15 AM 24.8 °F 16.1 °F 17.6 °F 74% 29.75 in 10.0 mi SE 8.1 mph - N/A   Overcast
1:35 AM 24.8 °F 16.1 °F 19.4 °F 80% 29.74 in 10.0 mi SE 8.1 mph - N/A   Mostly Cloudy
1:55 AM 24.8 °F 15.3 °F 19.4 °F 80% 29.73 in 10.0 mi SE 9.2 mph - N/A   Overcast
2:15 AM 24.8 °F 15.3 °F 19.4 °F 80% 29.72 in 10.0 mi SE 9.2 mph - N/A   Overcast
2:35 AM 24.8 °F 14.6 °F 19.4 °F 80% 29.72 in 10.0 mi SSE 10.4 mph - N/A   Overcast
2:55 AM 24.8 °F 14.0 °F 19.4 °F 80% 29.71 in 10.0 mi SSE 11.5 mph - N/A   Overcast
3:15 AM 26.6 °F 16.8 °F 19.4 °F 74% 29.71 in 10.0 mi SSE 10.4 mph - N/A   Overcast
3:35 AM 26.6 °F 16.8 °F 19.4 °F 74% 29.70 in 10.0 mi SE 10.4 mph - N/A   Overcast
3:55 AM 26.6 °F 16.8 °F 19.4 °F 74% 29.69 in 10.0 mi SSE 10.4 mph - N/A   Overcast
4:15 AM 26.6 °F 15.7 °F 19.4 °F 74% 29.68 in 10.0 mi SSE 12.7 mph - N/A   Overcast
4:35 AM 28.4 °F 19.7 °F 19.4 °F 69% 29.68 in 10.0 mi SSE 9.2 mph - N/A   Overcast
4:55 AM 28.4 °F 18.5 °F 19.4 °F 69% 29.67 in 10.0 mi SE 11.5 mph - N/A   Overcast
5:15 AM 28.4 °F 19.7 °F 21.2 °F 74% 29.67 in 10.0 mi SSE 9.2 mph - N/A   Overcast
5:35 AM 28.4 °F 19.1 °F 21.2 °F 74% 29.65 in 9.0 mi SE 10.4 mph - N/A   Overcast
5:55 AM 28.4 °F 18.0 °F 23.0 °F 80% 29.65 in 9.0 mi SSE 12.7 mph - N/A   Mostly Cloudy
6:15 AM 30.2 °F 20.8 °F 23.0 °F 75% 29.65 in 10.0 mi SSE 11.5 mph - N/A   Overcast
6:35 AM 30.2 °F 20.8 °F 23.0 °F 75% 29.64 in 10.0 mi SSE 11.5 mph - N/A   Overcast
6:55 AM 30.2 °F 20.2 °F 23.0 °F 75% 29.65 in 10.0 mi South 12.7 mph - N/A   Overcast
7:15 AM 30.2 °F 19.8 °F 24.8 °F 80% 29.65 in 10.0 mi SSE 13.8 mph - N/A   Overcast
7:35 AM 30.2 °F 21.9 °F 24.8 °F 80% 29.65 in 10.0 mi South 9.2 mph - N/A   Overcast
7:55 AM 30.2 °F 20.8 °F 24.8 °F 80% 29.65 in 2.0 mi SSE 11.5 mph - N/A   Overcast
8:15 AM 30.2 °F 21.9 °F 26.6 °F 86% 29.64 in 1.5 mi SSE 9.2 mph - N/A   Overcast
8:35 AM 30.2 °F 21.9 °F 26.6 °F 86% 29.64 in 1.5 mi SSE 9.2 mph - N/A   Overcast
8:55 AM 30.2 °F 21.9 °F 26.6 °F 86% 29.64 in 1.2 mi SSE 9.2 mph - N/A   Overcast
9:15 AM 30.2 °F 20.2 °F 28.4 °F 93% 29.63 in 1.2 mi SSE 12.7 mph - N/A   Overcast
9:35 AM 32.0 °F 23.6 °F 28.4 °F 87% 29.63 in 1.0 mi SSE 10.4 mph - 0.01 in   Overcast
9:55 AM 32.0 °F 23.6 °F 28.4 °F 87% 29.61 in 1.8 mi SSE 10.4 mph - 0.02 in   Overcast
10:15 AM 33.8 °F 25.3 °F 28.4 °F 81% 29.61 in 8.0 mi SSE 11.5 mph - N/A   Overcast
10:35 AM 33.8 °F 27.7 °F 28.4 °F 81% 29.61 in 6.0 mi South 6.9 mph - N/A   Overcast
10:55 AM 33.8 °F 26.4 °F 28.4 °F 81% 29.61 in 9.0 mi South 9.2 mph - N/A   Overcast
11:15 AM 33.8 °F 24.8 °F 28.4 °F 81% 29.60 in 7.0 mi South 12.7 mph - N/A   Overcast
11:35 AM 33.8 °F 25.8 °F 28.4 °F 81% 29.60 in 3.0 mi South 10.4 mph 19.6 mph 0.01 in   Overcast
11:55 AM 33.8 °F 26.4 °F 30.2 °F 87% 29.60 in 7.0 mi South 9.2 mph - 0.01 in   Overcast
12:15 PM 33.8 °F 25.3 °F 30.2 °F 87% 29.58 in 9.0 mi SSE 11.5 mph - 0.01 in   Overcast
12:35 PM 35.6 °F 29.2 °F 30.2 °F 81% 29.58 in 10.0 mi SSE 8.1 mph - 0.01 in   Overcast
12:55 PM 35.6 °F 28.6 °F 30.2 °F 81% 29.57 in 10.0 mi SSE 9.2 mph - 0.01 in   Overcast
1:15 PM 35.6 °F 28.6 °F 30.2 °F 81% 29.57 in 10.0 mi SSE 9.2 mph - N/A   Overcast
1:35 PM 35.6 °F 29.2 °F 30.2 °F 81% 29.57 in 10.0 mi SSE 8.1 mph - N/A   Overcast
1:55 PM 35.6 °F 28.6 °F 30.2 °F 81% 29.57 in 10.0 mi South 9.2 mph - N/A   Overcast
2:15 PM 37.4 °F 28.2 °F 30.2 °F 75% 29.57 in 10.0 mi South 16.1 mph - N/A   Overcast
2:35 PM 35.6 °F 27.1 °F 30.2 °F 81% 29.57 in 10.0 mi South 12.7 mph - N/A   Overcast
2:55 PM 35.6 °F 28.0 °F 30.2 °F 81% 29.56 in 10.0 mi SSE 10.4 mph - N/A   Mostly Cloudy
3:15 PM 35.6 °F 28.0 °F 30.2 °F 81% 29.56 in 10.0 mi South 10.4 mph - N/A   Mostly Cloudy
3:35 PM 35.6 °F 29.9 °F 30.2 °F 81% 29.56 in 10.0 mi South 6.9 mph - N/A   Overcast
3:55 PM 37.4 °F 32.8 °F 32.0 °F 81% 29.56 in 10.0 mi SSE 5.8 mph - N/A   Overcast
4:15 PM 37.4 °F 31.4 °F 30.2 °F 75% 29.56 in 10.0 mi South 8.1 mph - N/A   Overcast
4:35 PM 37.4 °F 31.4 °F 32.0 °F 81% 29.56 in 10.0 mi SSW 8.1 mph - N/A   Overcast
4:55 PM 37.4 °F 32.1 °F 32.0 °F 81% 29.56 in 10.0 mi South 6.9 mph - N/A   Overcast
5:15 PM 37.4 °F 30.8 °F 32.0 °F 81% 29.56 in 10.0 mi South 9.2 mph - N/A   Overcast
5:35 PM 35.6 °F 29.2 °F 32.0 °F 87% 29.57 in 10.0 mi South 8.1 mph - N/A   Overcast
5:55 PM 35.6 °F 29.2 °F 32.0 °F 87% 29.56 in 10.0 mi South 8.1 mph - N/A   Overcast
6:15 PM 37.4 °F 30.8 °F 30.2 °F 75% 29.56 in 10.0 mi South 9.2 mph - N/A   Overcast
6:35 PM 35.6 °F 29.9 °F 32.0 °F 87% 29.56 in 10.0 mi South 6.9 mph - N/A   Overcast
6:55 PM 35.6 °F 30.7 °F 30.2 °F 81% 29.57 in 10.0 mi South 5.8 mph - N/A   Overcast
7:15 PM 35.6 °F 29.9 °F 30.2 °F 81% 29.57 in 10.0 mi South 6.9 mph - N/A   Overcast
7:35 PM 35.6 °F 29.9 °F 30.2 °F 81% 29.58 in 10.0 mi South 6.9 mph - N/A   Overcast
7:55 PM 35.6 °F 30.7 °F 30.2 °F 81% 29.59 in 10.0 mi SSW 5.8 mph - N/A   Overcast
8:15 PM 35.6 °F 31.7 °F 30.2 °F 81% 29.59 in 10.0 mi SSW 4.6 mph - N/A   Overcast
8:35 PM 35.6 °F 30.7 °F 30.2 °F 81% 29.59 in 10.0 mi SSW 5.8 mph - N/A   Overcast
8:55 PM 37.4 °F 32.8 °F 30.2 °F 75% 29.60 in 10.0 mi WSW 5.8 mph - N/A   Overcast
9:15 PM 35.6 °F 29.2 °F 30.2 °F 81% 29.60 in 10.0 mi WSW 8.1 mph - N/A   Overcast
9:35 PM 35.6 °F 29.2 °F 28.4 °F 75% 29.60 in 10.0 mi West 8.1 mph - N/A   Scattered Clouds
9:55 PM 35.6 °F 30.7 °F 28.4 °F 75% 29.60 in 10.0 mi West 5.8 mph - N/A   Scattered Clouds
10:15 PM 35.6 °F 31.7 °F 28.4 °F 75% 29.60 in 10.0 mi West 4.6 mph - N/A   Mostly Cloudy
10:35 PM 35.6 °F 29.2 °F 26.6 °F 70% 29.60 in 10.0 mi West 8.1 mph - N/A   Mostly Cloudy
10:55 PM 33.8 °F 25.3 °F 24.8 °F 70% 29.60 in 10.0 mi West 11.5 mph 17.3 mph N/A   Overcast
11:15 PM 33.8 °F 23.9 °F 21.2 °F 60% 29.61 in 10.0 mi West 15.0 mph 19.6 mph N/A   Overcast
11:35 PM 33.8 °F 23.5 °F 23.0 °F 65% 29.60 in 10.0 mi West 16.1 mph 19.6 mph N/A   Overcast
11:55 PM 33.8 °F 24.8 °F 21.2 °F 60% 29.60 in 10.0 mi West 12.7 mph - N/A   Overcast